Regional Weather Roundup
Issued by NWS

Home | Current Version | Previous Version | Graphics & Text | Print | Product List | Glossary On
Versions: 1 2 3 4 5 6 7 8 9 10 11 12 13 14 15 16 17 18 19 20 21 22 23 24 25 26 27 28 29 30 31 32 33 34 35 36 37 38 39 40 41 42 43 44 45 46 47 48 49 50
000
ASUS43 KOAX 281202
RWRNE

WEATHER ROUNDUP FOR NEBRASKA
NATIONAL WEATHER SERVICE OMAHA NE
600 AM CST WED JAN 28 2015

NOTES: SATELLITE DATA IS BEING USED TO AUGMENT CLOUD COVER ABOVE
       12000 FEET.
       "FAIR" INDICATES FEW OR NO CLOUDS BELOW 12,000 FEET WITH NO
       SIGNIFICANT WEATHER AND/OR OBSTRUCTIONS TO VISIBILITY.

  * THESE STATIONS DO NOT REPORT WEATHER SUCH AS RAIN...SNOW OR FOG.

NEZ001>004-019>022-054>056-281300-
NEBRASKA PANHANDLE

CITY           SKY/WX    TMP DP  RH WIND       PRES   REMARKS
SCOTTSBLUFF      N/A    N/A N/A N/A MISG      29.94R
ALLIANCE       MOCLDY    44  33  65 W22       29.87S
6HR MIN TEMP:  29; 6HR MAX TEMP:  45;

CHADRON        PTCLDY    46  32  58 W15       29.86F
6HR MIN TEMP:  32; 6HR MAX TEMP:  46;

SIDNEY         MOCLDY    44  31  60 W14       29.94S
6HR MIN TEMP:  37; 6HR MAX TEMP:  46;

$$

NEZ057>060-069>072-079>082-281300-
SOUTHWEST NEBRASKA

CITY           SKY/WX    TMP DP  RH WIND       PRES   REMARKS
NORTH PLATTE   PTCLDY    31  27  85 NW10      29.85S WCI  22
6HR MIN TEMP:  25; 6HR MAX TEMP:  32;

IMPERIAL       PTCLDY    42  29  59 NW10      29.89R
6HR MIN TEMP:  32; 6HR MAX TEMP:  43;

MCCOOK         CLEAR     32  27  81 W10       29.85S WCI  24
6HR MIN TEMP:  30; 6HR MAX TEMP:  44;

$$

NEZ005>010-023>029-035>040-094-281300-
NORTH CENTRAL NEBRASKA

CITY           SKY/WX    TMP DP  RH WIND       PRES   REMARKS
VALENTINE      MOCLDY    37  29  72 SW14      29.76F WCI  28
6HR MIN TEMP:  34; 6HR MAX TEMP:  41;

BROKEN BOW     CLEAR     49  30  48 W3        29.80F
6HR MIN TEMP:  30; 6HR MAX TEMP:  49;

ORD            CLEAR     24  22  91 CALM      29.80F
6HR MIN TEMP:  24; 6HR MAX TEMP:  32;

$$

NEZ041-046>049-061>064-073>077-083>087-281300-
SOUTH CENTRAL NEBRASKA

CITY           SKY/WX    TMP DP  RH WIND       PRES   REMARKS
GRAND ISLAND   CLEAR     27  24  89 NE3       29.82F
6HR MIN TEMP:  26; 6HR MAX TEMP:  39;

HASTINGS       CLEAR     25  21  85 N6        29.81S WCI  18
6HR MIN TEMP:  24; 6HR MAX TEMP:  40;

KEARNEY *      CLEAR     30  27  86 CALM      29.81F
$$

NEZ011>018-030>034-042>045-281300-
NORTHEAST NEBRASKA

CITY           SKY/WX    TMP DP  RH WIND       PRES   REMARKS
NORFOLK        CLEAR     30  27  88 SE6       29.83S WCI  24
6HR MIN TEMP:  29; 6HR MAX TEMP:  40;

COLUMBUS *     CLEAR     30  21  69 E3        29.85F
TEKAMAH        CLEAR     32  29  88 SE9       29.89F WCI  24
6HR MIN TEMP:  31; 6HR MAX TEMP:  36;

$$

NEZ050>053-065>068-078-088>093-281300-
SOUTHEAST NEBRASKA

CITY           SKY/WX    TMP DP  RH WIND       PRES   REMARKS
LINCOLN        CLEAR     33  28  81 E5        29.87F WCI  29
6HR MIN TEMP:  33; 6HR MAX TEMP:  40;

OMAHA EPPLEY   PTCLDY    34  29  82 SE12      29.91S WCI  25
6HR MIN TEMP:  34; 6HR MAX TEMP:  39;

FALLS CITY     CLEAR     35  28  75 SE9       29.90F WCI  28
6HR MIN TEMP:  33; 6HR MAX TEMP:  38;

$$

NEZ044-045-051>053-067-281300-
OMAHA AREA

CITY           SKY/WX    TMP DP  RH WIND       PRES   REMARKS
OMAHA EPPLEY   PTCLDY    34  29  82 SE12      29.91S WCI  25
6HR MIN TEMP:  34; 6HR MAX TEMP:  39;

OFFUTT AFB     CLEAR     34  29  83 E12       29.90F WCI  25
$$


USA.gov is the U.S. government's official web portal to all federal, state and local government web resources and services.